Nashville, TN

9:04 AM CDT on August 27, 2016 (GMT -0500)
Nashville International

Weather History for KBNA - December, 2012

Change the Weather History Date:

Wednesday, December 26, 2012

  Actual Average Record
Temperature  
Mean Temperature 39 °F 38 °F  
Max Temperature 44 °F 47 °F 75 °F (2015)
Min Temperature 33 °F 30 °F 2 °F (1983)
Degree Days  
Heating Degree Days 26    
Month to date heating degree days 392  
Since 1 July heating degree days 1146  
Cooling Degree Days 0    
Month to date cooling degree days 2  
Year to date cooling degree days 1977  
Moisture  
Dew Point 33 °F    
Average Humidity 88    
Maximum Humidity 100    
Minimum Humidity 75    
Precipitation  
Precipitation 0.68 in 0.12 in 4.06 in (1911)
Month to date precipitation 4.02 3.67  
Year to date precipitation 45.13 46.68  
Snow  
Snow T in - - ()
Month to date snowfall T  
Snow Depth 0.00 in    
Sea Level Pressure  
Sea Level Pressure 29.68 in    
Wind  
Wind Speed 11 mph (NW)    
Max Wind Speed 24 mph    
Max Gust Speed 33 mph    
Visibility 8 miles    
Events Rain , Snow    
T = Trace of Precipitation, MM = Missing Value Source: NWS Daily Summary

Daily Weather History Graph

Daily Weather History Graph

Search for Another Location

Airport or City:

Trip Planner

Search our weather history database for the weather conditions in past years. The results will help you decide how hot, cold, wet, or windy it might be!

Date:

Astronomy

Dec. 26, 2012 Rise Set
Actual Time 6:56 AM CST 4:39 PM CST
Civil Twilight 6:27 AM CST 5:07 PM CST
Nautical Twilight 5:55 AM CST 5:39 PM CST
Astronomical Twilight 5:24 AM CST 6:11 PM CST
Moon 3:31 PM CST (12/26) 5:20 AM CST (12/26)
Length of Visible Light 10h 40m
Length of Day
9h 42m
Waxing Gibbous, 97% of the Moon is Illuminated
Dec 26
Waxing Gibbous
Dec 28
Full
Jan 4
Last Quarter
Jan 11
New
Jan 18
First Quarter

Hourly Weather History & Observations

Time (CST) Temp. Windchill Dew Point Humidity Pressure Visibility Wind Dir Wind Speed Gust Speed Precip Events Conditions
12:53 AM 42.1 °F 33.9 °F 39.9 °F 92% 29.45 in 10.0 mi ENE 17.3 mph 27.6 mph 0.10 in   Overcast
1:53 AM 43.0 °F 38.2 °F 41.0 °F 93% 29.45 in 10.0 mi NE 8.1 mph - 0.02 in   Overcast
2:07 AM 42.8 °F 35.4 °F 41.0 °F 93% 29.42 in 2.5 mi East 15.0 mph - 0.09 in Rain Heavy Rain
2:29 AM 44.6 °F 37.8 °F 42.8 °F 93% 29.39 in 3.0 mi ENE 15.0 mph - 0.27 in Rain Heavy Rain
2:53 AM 44.1 °F 42.5 °F 42.1 °F 93% 29.43 in 3.0 mi Variable 3.5 mph - 0.31 in Rain Rain
2:58 AM 44.6 °F 41.4 °F 42.8 °F 93% 29.41 in 2.5 mi North 5.8 mph - 0.04 in Rain Heavy Rain
3:07 AM 44.6 °F 43.1 °F 42.8 °F 93% 29.41 in 4.0 mi NNE 3.5 mph - 0.07 in Rain Light Rain
3:49 AM 42.8 °F 40.1 °F 42.8 °F 100% 29.37 in 6.0 mi North 4.6 mph - 0.12 in Rain Rain
3:53 AM 43.0 °F 38.8 °F 42.1 °F 97% 29.37 in 4.0 mi NNW 6.9 mph - 0.13 in Rain Rain
4:53 AM 39.9 °F 34.5 °F 37.9 °F 93% 29.44 in 9.0 mi NW 8.1 mph - 0.10 in Rain Light Rain
5:17 AM 39.2 °F 33.6 °F 37.4 °F 93% 29.43 in 10.0 mi WNW 8.1 mph - N/A Rain Light Rain
5:53 AM 39.9 °F 37.8 °F 37.9 °F 93% 29.45 in 8.0 mi WSW 3.5 mph - 0.01 in   Overcast
6:16 AM 39.2 °F 35.0 °F 37.4 °F 93% 29.46 in 8.0 mi WSW 5.8 mph - 0.01 in   Overcast
6:38 AM 39.2 °F 35.0 °F 37.4 °F 93% 29.46 in 9.0 mi West 5.8 mph - 0.01 in Rain Light Rain
6:53 AM 39.0 °F 34.0 °F 37.9 °F 96% 29.47 in 6.0 mi West 6.9 mph - 0.01 in Rain Light Rain
6:59 AM 39.2 °F 34.2 °F 37.4 °F 93% 29.47 in 2.5 mi West 6.9 mph - 0.00 in   Overcast
7:32 AM 37.4 °F 29.8 °F 35.6 °F 93% 29.51 in 5.0 mi West 11.5 mph 19.6 mph 0.01 in Rain Light Rain
7:53 AM 37.0 °F 29.8 °F 35.1 °F 93% 29.53 in 4.0 mi West 10.4 mph - 0.01 in Rain Light Rain
8:53 AM 35.1 °F 26.9 °F 32.0 °F 89% 29.58 in 3.0 mi WNW 11.5 mph 20.7 mph 0.01 in Snow Light Snow
9:53 AM 35.1 °F 25.9 °F 32.0 °F 89% 29.64 in 10.0 mi WNW 13.8 mph 24.2 mph 0.00 in   Overcast
10:53 AM 35.1 °F 25.9 °F 30.9 °F 85% 29.68 in 10.0 mi West 13.8 mph 23.0 mph 0.00 in   Overcast
11:53 AM 35.1 °F 26.4 °F 30.0 °F 82% 29.72 in 10.0 mi WNW 12.7 mph 26.5 mph N/A   Overcast
12:53 PM 34.0 °F 23.8 °F 30.0 °F 85% 29.75 in 2.5 mi WNW 16.1 mph 23.0 mph 0.00 in Snow Light Snow
1:12 PM 33.8 °F 22.2 °F 28.4 °F 81% 29.75 in 7.0 mi WNW 20.7 mph 32.2 mph 0.00 in Snow Light Snow
1:32 PM 33.8 °F 22.2 °F 28.4 °F 81% 29.77 in 10.0 mi WNW 20.7 mph 32.2 mph 0.00 in   Overcast
1:53 PM 34.0 °F 23.0 °F 28.9 °F 82% 29.79 in 10.0 mi WNW 18.4 mph 26.5 mph 0.00 in   Overcast
2:06 PM 33.8 °F 24.3 °F 28.4 °F 81% 29.80 in 10.0 mi WNW 13.8 mph 26.5 mph N/A   Overcast
2:53 PM 33.1 °F 21.5 °F 28.0 °F 82% 29.84 in 10.0 mi WNW 19.6 mph 29.9 mph N/A   Overcast
3:53 PM 33.1 °F 23.4 °F 28.0 °F 82% 29.89 in 10.0 mi WNW 13.8 mph 24.2 mph N/A   Overcast
4:53 PM 33.1 °F 24.4 °F 27.0 °F 78% 29.94 in 10.0 mi WNW 11.5 mph 19.6 mph N/A   Overcast
5:53 PM 34.0 °F 25.0 °F 27.0 °F 75% 29.98 in 10.0 mi WNW 12.7 mph 26.5 mph 0.00 in Snow Light Snow
6:53 PM 34.0 °F 25.5 °F 26.1 °F 73% 30.02 in 10.0 mi NW 11.5 mph 26.5 mph 0.00 in Snow Light Snow
7:53 PM 34.0 °F 24.2 °F 27.0 °F 75% 30.04 in 10.0 mi NW 15.0 mph 20.7 mph 0.00 in   Overcast
8:53 PM 34.0 °F 26.6 °F 27.0 °F 75% 30.06 in 10.0 mi NNW 9.2 mph - N/A   Overcast
9:53 PM 34.0 °F 26.6 °F 27.0 °F 75% 30.09 in 10.0 mi NW 9.2 mph 20.7 mph N/A   Overcast
10:53 PM 34.0 °F 26.6 °F 27.0 °F 75% 30.09 in 10.0 mi NW 9.2 mph - N/A   Overcast
11:53 PM 34.0 °F 26.0 °F 26.1 °F 73% 30.11 in 10.0 mi NW 10.4 mph - N/A   Overcast